Powrót do katalogu

STARLINK-31589

AktywnyŁącznośćVLEO
NORAD 59654·PAYLOAD·🇺🇸 United States

Wystrzelony May 6, 2024 z Cape Canaveral Space Force Station

Loading…

Następne Przeloty (najbliższe 24 godziny)

TLE

ŚwieżeSource: CelesTrak SupGP

Epoka: Sep 15, 2026, 03:12 UTC

1 59654C 24084A   26258.13381944 -.00025362  00000+0 -91835-3 0  2589
2 59654  43.0026  51.7495 0001699 269.0190 252.0816 15.27600601    12

Śledź STARLINK-31589 w czasie rzeczywistym z AllMySat

Download on the App Store